Home > Weather > Jersey City > Past weeks

Flag for USA Past Weather in Jersey City, New Jersey, USA — Yesterday and Last 2 Weeks

Now
73 °F

Low clouds.


Feels Like: 71 °F
Forecast: 72 / 76 °F
Wind: 8 mph from Southeast

Location: Newark International Airport

Current Time: Jun 28, 2016 at 2:50:54 PM

Latest Report: Jun 28, 2016 at 1:51 PM


Visibility: 8 mi

Pressure: 29.93 "Hg

Humidity: 88%

Dew Point: 69 °F

Location of Jersey CityLocation

Past Weather in Jersey City — Graph

°F

Jersey City Temperature Yesterday

Maximum temperature yesterday: 85 °F (at 2:51 PM)
Minimum temperature yesterday: 65 °F (at 4:51 AM)
Average temperature yesterday: 75 °F

High & Low Weather Summary for the Past Weeks

 TemperatureHumidityPressure
High91 °F (Jun 21, 3:51 PM)97% (Jun 28, 12:51 AM)30.30 "Hg (Jun 28, 12:51 AM)
Low59 °F (Jun 14, 4:51 AM)21% (Jun 22, 1:51 PM)29.72 "Hg (Jun 16, 6:51 PM)
Average74 °F53%29.99 "Hg
* Reported Jun 13 12:51 PM — Jun 28 12:56 PM, Jersey City, Weather by CustomWeather, © 2016

Note: Actual official high and low records may vary slightly from our data, if they occured in-between our weather recording intervals... More about our weather records

Advertising

Jersey City Weather History for the Previous 24 Hours

Scroll right to see more
 ConditionsComfort  
Time TempWeatherWind HumidityBarometerVisibility
12:56 PM
Tue, Jun 28
73 °FDrizzle. Fog.7 mph88%29.95 "Hg6 mi
11:51 AM74 °FLight rain. Mostly cloudy.No wind88%29.96 "Hg8 mi
10:51 AM73 °FLow clouds.6 mph84%29.96 "Hg10 mi
9:51 AM71 °FMostly cloudy.6 mph87%29.96 "Hg10 mi
8:51 AM71 °FMostly cloudy.8 mph84%29.97 "Hg10 mi
7:51 AM71 °FMostly cloudy.6 mph90%29.97 "Hg10 mi
6:51 AM71 °FLow clouds.6 mph90%29.96 "Hg10 mi
5:51 AM71 °FLow clouds.5 mph87%29.96 "Hg10 mi
4:51 AM71 °FMostly cloudy.6 mph93%29.96 "Hg10 mi
3:51 AM71 °FMostly cloudy.6 mph93%29.96 "Hg10 mi
2:51 AM71 °FMostly cloudy.7 mph93%29.97 "Hg10 mi
1:51 AM70 °FMostly cloudy.7 mph97%29.97 "Hg10 mi
12:51 AM70 °FLight rain. Mostly cloudy.8 mph97%29.99 "Hg8 mi
11:51 PM
Mon, Jun 27
71 °FRain. Fog.8 mph93%29.99 "Hg6 mi
10:51 PM72 °FHeavy rain. Fog.8 mph91%30.00 "Hg5 mi
10:01 PM73 °FLight rain. Overcast.5 mph84%30.01 "Hg8 mi
8:51 PM76 °FLight rain. Mostly cloudy.9 mph77%29.98 "Hg10 mi
7:51 PM77 °FLight rain. Mostly cloudy.10 mph74%29.98 "Hg10 mi
6:51 PM78 °FLight rain. Mostly cloudy.12 mph69%29.97 "Hg10 mi
5:51 PM81 °FPartly sunny.12 mph60%29.96 "Hg10 mi
4:51 PM81 °FBroken clouds.12 mph62%29.97 "Hg10 mi
3:51 PM82 °FPartly sunny.13 mph58%29.98 "Hg10 mi
2:51 PM85 °FBroken clouds.15 mph30%29.98 "Hg10 mi
Weather by CustomWeather, © 2016

See weather overviewHow to use our weather pages